When you browse on this site, cookies collect data to enhance your experience and personalize the content and advertising you see.
Visit our Privacy Policy to learn more. By continuing to use the site, you agree to this use of cookies and data.

Hourly Weather Szombathely

Today, 13 August, Thursday

Time Temperature Precipitation Wind Pressure Humidity
00:00 +22°C° 0 mm 1 mps 744 mmHg 69%
01:00 +22°C° 0 mm 1 mps 744 mmHg 72%
02:00 +21°C° 0 mm 1 mps 744 mmHg 73%
03:00 +21°C° 0 mm 1 mps 744 mmHg 75%
04:00 +21°C° 0 mm 1 mps 744 mmHg 76%
05:00 +22°C° 0 mm 1 mps 744 mmHg 74%
06:00 +23°C° 0 mm 2 mps 744 mmHg 71%
07:00 +24°C° 0 mm 2 mps 744 mmHg 69%
08:00 +26°C° 0 mm 3 mps 744 mmHg 63%
09:00 +27°C° 0 mm 3 mps 744 mmHg 58%
10:00 +29°C° 0 mm 4 mps 744 mmHg 53%
11:00 +30°C° 0 mm 4 mps 743 mmHg 51%
12:00 +32°C° 0 mm 4 mps 743 mmHg 49%
13:00 +33°C° 0 mm 5 mps 743 mmHg 47%
14:00 +32°C° 0 mm 4 mps 742 mmHg 49%
15:00 +32°C° 0 mm 4 mps 742 mmHg 51%
16:00 +31°C° 0 mm 3 mps 742 mmHg 53%
17:00 +29°C° 0 mm 3 mps 742 mmHg 58%
18:00 +28°C° 0 mm 3 mps 742 mmHg 62%
19:00 +27°C° 0 mm 2 mps 741 mmHg 67%
20:00 +26°C° 0.3 mm 2 mps 741 mmHg 70%
21:00 +25°C° 0.3 mm 2 mps 742 mmHg 73%
22:00 +24°C° 0.3 mm 1 mps 742 mmHg 77%
23:00 +24°C° 1 mm 1 mps 742 mmHg 79%

Tomorrow, 14 August, Friday

Time Temperature Precipitation Wind Pressure Humidity
00:00 +23°C° 1 mm 1 mps 742 mmHg 82%
01:00 +23°C° 1 mm 1 mps 742 mmHg 85%
02:00 +23°C° 0.7 mm 1 mps 742 mmHg 86%
03:00 +22°C° 0.7 mm 1 mps 741 mmHg 86%
04:00 +22°C° 0.7 mm 1 mps 741 mmHg 87%
05:00 +22°C° 0.5 mm 1 mps 741 mmHg 87%
06:00 +21°C° 0.5 mm 0 mps 741 mmHg 87%
07:00 +21°C° 0.5 mm 0 mps 742 mmHg 87%
08:00 +24°C° 0.2 mm 1 mps 742 mmHg 83%
09:00 +25°C° 0.2 mm 1 mps 742 mmHg 79%
10:00 +26°C° 0.2 mm 1 mps 742 mmHg 75%
11:00 +26°C° 0.4 mm 2 mps 741 mmHg 74%
12:00 +26°C° 0.4 mm 2 mps 741 mmHg 74%
13:00 +26°C° 0.4 mm 3 mps 741 mmHg 73%
14:00 +26°C° 0.6 mm 3 mps 741 mmHg 73%
15:00 +26°C° 0.6 mm 2 mps 741 mmHg 72%
16:00 +26°C° 0.6 mm 2 mps 740 mmHg 72%
17:00 +25°C° 1.5 mm 2 mps 740 mmHg 78%
18:00 +23°C° 1.5 mm 2 mps 740 mmHg 84%
19:00 +21°C° 1.5 mm 2 mps 740 mmHg 90%
20:00 +21°C° 0.1 mm 2 mps 741 mmHg 89%
21:00 +21°C° 0.1 mm 2 mps 741 mmHg 88%
22:00 +22°C° 0.1 mm 1 mps 741 mmHg 86%
23:00 +22°C° 0.1 mm 1 mps 741 mmHg 87%

Day after tomorrow, 15 August, Saturday

Time Temperature Precipitation Wind Pressure Humidity
00:00 +22°C° 0.1 mm 1 mps 741 mmHg 87%
01:00 +22°C° 0.1 mm 1 mps 741 mmHg 87%
02:00 +21°C° 0.2 mm 1 mps 741 mmHg 87%
03:00 +21°C° 0.2 mm 1 mps 741 mmHg 88%
04:00 +21°C° 0.2 mm 1 mps 741 mmHg 88%
05:00 +21°C° 0.4 mm 1 mps 741 mmHg 89%
06:00 +21°C° 0.4 mm 1 mps 741 mmHg 89%
07:00 +22°C° 0.4 mm 1 mps 741 mmHg 90%
08:00 +22°C° 0.7 mm 1 mps 741 mmHg 90%
09:00 +22°C° 0.7 mm 1 mps 742 mmHg 91%
10:00 +21°C° 0.7 mm 2 mps 742 mmHg 92%
11:00 +23°C° 0.2 mm 2 mps 741 mmHg 87%
12:00 +24°C° 0.2 mm 2 mps 741 mmHg 82%
13:00 +25°C° 0.2 mm 2 mps 741 mmHg 77%
14:00 +26°C° 0.5 mm 2 mps 741 mmHg 73%
15:00 +27°C° 0.5 mm 2 mps 741 mmHg 69%
16:00 +28°C° 0.5 mm 3 mps 740 mmHg 65%
17:00 +26°C° 0.4 mm 2 mps 740 mmHg 70%
18:00 +25°C° 0.4 mm 2 mps 740 mmHg 75%
19:00 +23°C° 0.4 mm 2 mps 740 mmHg 79%
20:00 +23°C° 0 mm 1 mps 740 mmHg 81%
21:00 +22°C° 0 mm 1 mps 740 mmHg 83%
22:00 +21°C° 0 mm 1 mps 741 mmHg 85%
23:00 +21°C° 0.1 mm 1 mps 741 mmHg 86%

16 August, Sunday

Time Temperature Precipitation Wind Pressure Humidity
00:00 +21°C° 0.1 mm 1 mps 741 mmHg 88%
01:00 +20°C° 0.1 mm 1 mps 741 mmHg 89%
02:00 +20°C° 0 mm 1 mps 741 mmHg 90%
03:00 +20°C° 0 mm 1 mps 741 mmHg 90%
04:00 +19°C° 0 mm 1 mps 740 mmHg 91%
05:00 +20°C° 0 mm 1 mps 741 mmHg 89%
06:00 +21°C° 0 mm 1 mps 741 mmHg 87%
07:00 +22°C° 0 mm 1 mps 741 mmHg 85%
08:00 +23°C° 0 mm 1 mps 741 mmHg 79%
09:00 +25°C° 0 mm 1 mps 741 mmHg 73%
10:00 +26°C° 0 mm 2 mps 742 mmHg 67%
11:00 +27°C° 0.2 mm 1 mps 741 mmHg 63%
12:00 +28°C° 0.2 mm 1 mps 741 mmHg 59%
13:00 +29°C° 0.2 mm 1 mps 741 mmHg 56%
14:00 +29°C° 0.8 mm 1 mps 741 mmHg 56%
15:00 +29°C° 0.8 mm 1 mps 740 mmHg 57%
16:00 +29°C° 0.8 mm 1 mps 740 mmHg 57%
17:00 +28°C° 0.1 mm 1 mps 740 mmHg 62%
18:00 +26°C° 0.1 mm 1 mps 740 mmHg 67%
19:00 +25°C° 0.1 mm 1 mps 740 mmHg 72%
20:00 +24°C° 0.1 mm 1 mps 740 mmHg 75%
21:00 +23°C° 0.1 mm 1 mps 740 mmHg 78%
22:00 +22°C° 0.1 mm 1 mps 741 mmHg 81%
23:00 +22°C° 0 mm 1 mps 740 mmHg 82%

17 August, Monday

Time Temperature Precipitation Wind Pressure Humidity
00:00 +22°C° 0 mm 1 mps 740 mmHg 83%
01:00 +21°C° 0 mm 1 mps 740 mmHg 85%
02:00 +21°C° 0 mm 1 mps 740 mmHg 86%
03:00 +21°C° 0 mm 1 mps 740 mmHg 87%
04:00 +20°C° 0 mm 1 mps 740 mmHg 88%
05:00 +21°C° 0 mm 1 mps 740 mmHg 86%
06:00 +22°C° 0 mm 1 mps 740 mmHg 84%
07:00 +23°C° 0 mm 1 mps 740 mmHg 82%
08:00 +25°C° 0 mm 2 mps 740 mmHg 76%
09:00 +27°C° 0 mm 2 mps 740 mmHg 69%
10:00 +28°C° 0 mm 3 mps 740 mmHg 62%
11:00 +29°C° 0.1 mm 3 mps 739 mmHg 58%
12:00 +30°C° 0.1 mm 4 mps 739 mmHg 54%
13:00 +33°C° 0.1 mm 4 mps 739 mmHg 50%
14:00 +32°C° 0 mm 4 mps 738 mmHg 50%
15:00 +32°C° 0 mm 4 mps 737 mmHg 50%
16:00 +32°C° 0 mm 4 mps 737 mmHg 50%
17:00 +30°C° 0.1 mm 3 mps 737 mmHg 56%
18:00 +28°C° 0.1 mm 2 mps 737 mmHg 62%
19:00 +26°C° 0.1 mm 1 mps 737 mmHg 68%
20:00 +25°C° 0.5 mm 1 mps 737 mmHg 71%
21:00 +24°C° 0.5 mm 1 mps 737 mmHg 75%
22:00 +23°C° 0.5 mm 1 mps 737 mmHg 79%
23:00 +21°C° 0.9 mm 2 mps 737 mmHg 82%

18 August, Tuesday

Time Temperature Precipitation Wind Pressure Humidity
00:00 +21°C° 0.9 mm 2 mps 737 mmHg 85%
01:00 +20°C° 0.9 mm 2 mps 737 mmHg 89%
02:00 +19°C° 0.3 mm 2 mps 737 mmHg 89%
03:00 +19°C° 0.3 mm 2 mps 738 mmHg 90%
04:00 +19°C° 0.3 mm 2 mps 738 mmHg 90%
05:00 +19°C° 0 mm 2 mps 738 mmHg 88%
06:00 +20°C° 0 mm 2 mps 738 mmHg 85%
07:00 +21°C° 0 mm 2 mps 738 mmHg 83%
08:00 +22°C° 0 mm 3 mps 739 mmHg 77%
09:00 +23°C° 0 mm 4 mps 739 mmHg 70%
10:00 +25°C° 0 mm 5 mps 740 mmHg 64%
11:00 +25°C° 0 mm 5 mps 740 mmHg 62%
12:00 +25°C° 0 mm 5 mps 739 mmHg 59%
13:00 +25°C° 0 mm 5 mps 739 mmHg 56%
14:00 +25°C° 0 mm 5 mps 739 mmHg 56%
15:00 +25°C° 0 mm 4 mps 739 mmHg 56%
16:00 +25°C° 0 mm 4 mps 739 mmHg 56%
17:00 +24°C° 0 mm 3 mps 739 mmHg 63%
18:00 +22°C° 0 mm 3 mps 739 mmHg 69%
19:00 +20°C° 0 mm 2 mps 739 mmHg 75%
20:00 +20°C° 0 mm 2 mps 739 mmHg 77%
21:00 +19°C° 0 mm 2 mps 740 mmHg 78%
22:00 +18°C° 0 mm 2 mps 740 mmHg 80%
23:00 +18°C° 0 mm 2 mps 740 mmHg 79%
Show more